WA0LM Weather Reports


Display with metric or nautical units.
time (UTC)temp
F
wind
direction
speed
MPH
gust
MPH
rain 1hr
in
rain 24hr
in
rain mn
in
humidity
%
barometer
mb
20260502184103 62 219 4.0 10.0 0.00 0.00 0.00 45 1011.3
20260502183600 62 219 6.0 14.0 0.00 0.00 0.00 44 1011.6
20260502183056 61 225 9.0 11.0 0.00 0.00 0.00 41 1011.7
20260502182551 60 226 9.0 13.0 0.00 0.00 0.00 42 1011.9
20260502182047 60 224 9.0 18.0 0.00 0.00 0.00 42 1011.8
20260502181545 60 219 10.0 23.0 0.00 0.00 0.00 43 1012.0
20260502181044 61 216 12.0 16.0 0.00 0.00 0.00 42 1011.9
20260502180541 61 212 6.0 14.0 0.00 0.00 0.00 43 1012.0
20260502170500 57 220 7.0 11.0 0.00 0.00 0.00 46 1013.4
20260502163937 56 224 4.0 12.0 0.00 0.00 0.00 49 1013.7
20260502163433 55 231 5.0 14.0 0.00 0.00 0.00 46 1013.7
20260502162931 56 237 9.0 14.0 0.00 0.00 0.00 51 1013.8
20260502162429 57 218 5.0 8.0 0.00 0.00 0.00 45 1013.9
20260502161926 55 202 6.0 12.0 0.00 0.00 0.00 45 1013.9
20260502161421 55 216 9.0 11.0 0.00 0.00 0.00 46 1014.0
20260502160919 54 220 7.0 11.0 0.00 0.00 0.00 50 1014.2
20260502160417 54 227 9.0 12.0 0.00 0.00 0.00 49 1014.0
20260502151855 53 231 9.0 13.0 0.00 0.00 0.00 47 1014.8
20260502151351 53 205 2.0 7.0 0.00 0.00 0.00 50 1015.0
20260502150849 52 263 12.0 18.0 0.00 0.00 0.00 46 1015.0
20260502150345 52 212 6.0 9.0 0.00 0.00 0.00 49 1015.1
20260502130733 41 223 2.0 3.0 0.00 0.00 0.00 66 1016.3
20260502130231 41 186 1.0 2.0 0.00 0.00 0.00 70 1016.5
20260502123717 39 120 3.0 3.0 0.00 0.00 0.00 70 1016.5
20260502123213 38 167 2.0 3.0 0.00 0.00 0.00 70 1016.5
20260502122710 37 121 2.0 3.0 0.00 0.00 0.00 73 1016.4
20260502122206 36 128 2.0 3.0 0.00 0.00 0.00 78 1016.6
20260502121705 35 111 1.0 2.0 0.00 0.00 0.00 81 1016.6
20260502121203 34 84 2.0 3.0 0.00 0.00 0.00 84 1016.5
20260502120659 33 82 3.0 3.0 0.00 0.00 0.00 85 1016.5
20260502120155 33 78 2.0 3.0 0.00 0.00 0.00 85 1016.5
20260502115653 33 94 3.0 4.0 0.00 0.00 0.00 85 1016.6
20260502115149 32 99 2.0 3.0 0.00 0.00 0.00 85 1016.5
20260502114645 32 100 3.0 4.0 0.00 0.00 0.00 85 1016.5
20260502114143 32 92 3.0 4.0 0.00 0.00 0.00 85 1016.4
20260502113640 32 95 3.0 4.0 0.00 0.00 0.00 86 1016.5
20260502113138 31 86 2.0 3.0 0.00 0.00 0.00 86 1016.6
20260502112636 31 92 3.0 4.0 0.00 0.00 0.00 84 1016.5
20260502112133 31 110 3.0 4.0 0.00 0.00 0.00 84 1016.6
20260502111631 32 112 3.0 3.0 0.00 0.00 0.00 84 1016.6
20260502111128 31 84 2.0 3.0 0.00 0.00 0.00 85 1016.5
20260502110626 31 133 3.0 4.0 0.00 0.00 0.00 86 1016.5
20260502110123 31 119 3.0 4.0 0.00 0.00 0.00 86 1016.4
20260502105620 32 116 4.0 4.0 0.00 0.00 0.00 86 1016.4
20260502105117 32 115 3.0 4.0 0.00 0.00 0.00 86 1016.4
20260502104614 32 103 4.0 5.0 0.00 0.00 0.00 85 1016.4
20260502104112 32 110 3.0 4.0 0.00 0.00 0.00 85 1016.5
20260502103609 32 106 4.0 4.0 0.00 0.00 0.00 85 1016.5
20260502103108 32 120 2.0 4.0 0.00 0.00 0.00 86 1016.5
20260502102603 32 104 4.0 4.0 0.00 0.00 0.00 87 1016.6
20260502102100 32 106 3.0 5.0 0.00 0.00 0.00 87 1016.7
20260502101558 32 108 4.0 4.0 0.00 0.00 0.00 87 1016.7
20260502101057 32 106 3.0 3.0 0.00 0.00 0.00 88 1016.8
20260502100554 32 100 3.0 3.0 0.00 0.00 0.00 88 1016.6
20260502091529 32 109 3.0 4.0 0.00 0.00 0.00 90 1016.7
20260502091026 32 113 3.0 4.0 0.00 0.00 0.00 89 1016.6
20260502090523 33 110 3.0 4.0 0.00 0.00 0.00 89 1016.5
20260502071418 35 111 3.0 3.0 0.00 0.00 0.00 84 1016.8
20260502070916 35 112 3.0 3.0 0.00 0.00 0.00 84 1017.0
20260502070414 35 109 3.0 3.0 0.00 0.00 0.00 83 1017.0
20260502065912 35 101 2.0 3.0 0.00 0.00 0.00 83 1017.0
20260502065410 35 100 3.0 3.0 0.00 0.00 0.00 82 1017.2
20260502064908 36 104 3.0 3.0 0.00 0.00 0.00 82 1017.0
20260502064405 36 98 3.0 3.0 0.00 0.00 0.00 81 1017.2
20260502063902 36 100 3.0 3.0 0.00 0.00 0.00 80 1017.4
20260502063400 36 106 2.0 3.0 0.00 0.00 0.00 80 1017.3
20260502062857 36 106 3.0 4.0 0.00 0.00 0.00 79 1017.1
20260502062354 36 101 3.0 4.0 0.00 0.00 0.00 79 1017.2
20260502061853 36 104 3.0 4.0 0.00 0.00 0.00 79 1017.2
20260502061351 37 98 2.0 3.0 0.00 0.00 0.00 80 1017.3
20260502060846 37 106 2.0 3.0 0.00 0.00 0.00 80 1017.2
20260502060342 37 103 2.0 3.0 0.00 0.00 0.00 80 1017.3
20260502055839 37 92 2.0 2.0 0.00 0.00 0.00 80 1017.1
20260502055337 37 100 2.0 2.0 0.00 0.00 0.00 81 1017.1
20260502054837 38 70 2.0 2.0 0.00 0.00 0.00 79 1017.2
20260502054334 37 75 2.0 2.0 0.00 0.00 0.00 79 1017.0
20260502053831 37 78 0.0 2.0 0.00 0.00 0.00 77 1017.2
20260502053328 37 107 2.0 3.0 0.00 0.00 0.00 73 1017.1
20260502052826 37 110 3.0 3.0 0.00 0.00 0.00 73 1017.0
20260502052324 38 109 3.0 3.0 0.00 0.00 0.00 73 1017.3
20260502051821 38 96 2.0 3.0 0.00 0.00 0.00 72 1017.1
20260502051320 38 108 2.0 3.0 0.00 0.00 0.00 71 1017.3
20260502050816 38 106 2.0 3.0 0.00 0.00 0.00 71 1017.2
20260502050312 38 108 2.0 3.0 0.00 0.00 0.00 71 1017.2
20260502045809 38 110 3.0 3.0 0.00 0.00 0.00 70 1017.2
20260502045306 39 114 3.0 3.0 0.00 0.00 0.00 68 1017.3
20260502044803 39 109 3.0 3.0 0.00 0.00 0.00 69 1017.4
20260502044259 39 113 3.0 3.0 0.00 0.00 0.00 68 1017.2
20260502043757 39 95 3.0 3.0 0.00 0.00 0.00 68 1017.3
20260502043254 40 100 2.0 2.0 0.00 0.00 0.00 68 1017.4
20260502042753 40 92 2.0 3.0 0.00 0.00 0.00 66 1017.4
20260502042251 40 134 0.0 2.0 0.00 0.00 0.00 65 1017.2
20260502041748 41 99 3.0 3.0 0.00 0.00 0.00 64 1017.2
20260502041245 41 150 0.0 1.0 0.00 0.00 0.00 62 1017.3
20260502040742 42 238 0.0 2.0 0.00 0.00 0.00 61 1017.3
20260502040239 42 271 3.0 4.0 0.00 0.00 0.00 62 1017.5
20260502035735 42 291 1.0 2.0 0.00 0.00 0.00 76 1017.3
20260502035232 41 103 0.0 2.0 0.00 0.00 0.00 65 1017.3
20260502034729 41 97 3.0 4.0 0.00 0.00 0.00 59 1017.3
20260502034228 41 107 3.0 3.0 0.00 0.00 0.00 58 1017.2
20260502033725 42 101 3.0 3.0 0.00 0.00 0.00 58 1017.5
20260502033223 42 91 3.0 3.0 0.00 0.00 0.00 57 1017.3
20260502032720 42 101 3.0 3.0 0.00 0.00 0.00 57 1017.3
20260502032215 43 101 2.0 3.0 0.00 0.00 0.00 58 1017.3
20260502031714 43 76 2.0 2.0 0.00 0.00 0.00 60 1017.2
20260502031211 43 83 1.0 2.0 0.00 0.00 0.00 57 1017.4
20260502030710 44 57 1.0 2.0 0.00 0.00 0.00 53 1017.1
20260502030208 44 68 2.0 2.0 0.00 0.00 0.00 49 1017.3
20260502025704 44 100 2.0 3.0 0.00 0.00 0.00 50 1016.9
20260502025202 44 101 2.0 3.0 0.00 0.00 0.00 47 1017.1
20260502024700 45 110 2.0 3.0 0.00 0.00 0.00 48 1017.1
20260502024158 45 103 3.0 3.0 0.00 0.00 0.00 48 1017.1
20260502023655 46 98 3.0 3.0 0.00 0.00 0.00 47 1017.1
20260502023152 46 95 2.0 3.0 0.00 0.00 0.00 47 1017.1
20260502022649 46 106 2.0 3.0 0.00 0.00 0.00 46 1017.0
20260502022146 47 109 3.0 3.0 0.00 0.00 0.00 46 1016.9
20260502021644 47 102 2.0 3.0 0.00 0.00 0.00 45 1016.8
20260502021141 48 99 3.0 3.0 0.00 0.00 0.00 45 1017.0
20260502020638 48 99 2.0 2.0 0.00 0.00 0.00 43 1016.8
20260502020134 48 87 1.0 2.0 0.00 0.00 0.00 43 1016.8
20260502015633 49 70 1.0 2.0 0.00 0.00 0.00 41 1016.6
20260502015129 49 59 2.0 2.0 0.00 0.00 0.00 40 1016.7
20260502014626 50 92 2.0 2.0 0.00 0.00 0.00 41 1016.7
20260502014123 50 98 2.0 2.0 0.00 0.00 0.00 39 1016.7
20260502013619 50 89 2.0 2.0 0.00 0.00 0.00 39 1016.7
20260502013115 51 72 2.0 2.0 0.00 0.00 0.00 37 1016.5
20260502012613 51 53 2.0 3.0 0.00 0.00 0.00 38 1016.6
20260502012111 51 60 2.0 2.0 0.00 0.00 0.00 37 1016.7
20260502011607 52 60 1.0 2.0 0.00 0.00 0.00 36 1016.6
20260502011103 53 64 2.0 2.0 0.00 0.00 0.00 35 1016.5
20260502010600 53 46 2.0 3.0 0.00 0.00 0.00 35 1016.5
20260502010056 53 50 3.0 3.0 0.00 0.00 0.00 35 1016.3
20260502005554 52 56 2.0 4.0 0.00 0.00 0.00 35 1016.6
20260502005052 53 63 2.0 4.0 0.00 0.00 0.00 36 1016.4
20260502004547 54 47 3.0 5.0 0.00 0.00 0.00 34 1016.3
20260502004044 55 26 1.0 4.0 0.00 0.00 0.00 34 1016.3
20260502003543 55 0 4.0 5.0 0.00 0.00 0.00 34 1016.4
20260502003039 55 35 3.0 5.0 0.00 0.00 0.00 33 1016.4
20260502002536 55 59 4.0 5.0 0.00 0.00 0.00 33 1016.3
20260502002033 55 77 2.0 5.0 0.00 0.00 0.00 33 1016.4
20260502001531 55 7 4.0 5.0 0.00 0.00 0.00 37 1016.2
20260502001027 55 73 3.0 6.0 0.00 0.00 0.00 33 1016.4
20260502000526 54 45 2.0 4.0 0.00 0.00 0.00 34 1016.2
20260502000022 55 2 2.0 4.0 0.00 0.00 0.00 34 1016.2
20260501235518 54 66 6.0 6.0 0.00 0.00 0.00 34 1016.2
20260501235014 56 15 2.0 3.0 0.00 0.00 0.00 34 1016.2
20260501234510 55 56 3.0 5.0 0.00 0.00 0.00 33 1016.3
20260501234009 55 9 4.0 6.0 0.00 0.00 0.00 38 1016.3
20260501233506 55 29 4.0 7.0 0.00 0.00 0.00 39 1016.4
20260501233002 54 2 3.0 6.0 0.00 0.00 0.00 36 1016.4
20260501232459 56 354 5.0 5.0 0.00 0.00 0.00 34 1016.3
20260501231956 55 356 3.0 6.0 0.00 0.00 0.00 36 1016.3
20260501231454 54 356 5.0 10.0 0.00 0.00 0.00 36 1016.3
20260501230952 53 25 4.0 6.0 0.00 0.00 0.00 37 1016.5
20260501230451 53 348 5.0 8.0 0.00 0.00 0.00 36 1016.5
20260501225948 53 350 3.0 5.0 0.00 0.00 0.00 35 1016.5
20260501225446 53 4 4.0 5.0 0.00 0.00 0.00 37 1016.4
20260501224941 51 332 6.0 7.0 0.00 0.00 0.00 40 1016.7
20260501224439 52 349 4.0 5.0 0.00 0.00 0.00 38 1016.5
20260501223936 52 0 4.0 4.0 0.00 0.00 0.00 40 1016.5
20260501223432 52 0 3.0 4.0 0.00 0.00 0.00 39 1016.7
20260501222927 52 26 3.0 4.0 0.00 0.00 0.00 40 1016.6
20260501222425 51 357 5.0 7.0 0.00 0.00 0.00 43 1016.5
20260501221921 51 351 8.0 9.0 0.00 0.00 0.00 41 1016.6
20260501221419 51 1 7.0 8.0 0.00 0.00 0.00 41 1016.4
20260501220916 51 351 3.0 7.0 0.00 0.00 0.00 41 1016.5
20260501220414 52 347 7.0 9.0 0.00 0.00 0.00 44 1016.5
20260501215910 52 306 5.0 7.0 0.00 0.00 0.00 39 1016.7
20260501215407 53 351 4.0 6.0 0.00 0.00 0.00 37 1016.6
20260501214903 53 298 8.0 12.0 0.00 0.00 0.00 38 1016.7
20260501214402 53 339 9.0 13.0 0.00 0.00 0.00 40 1016.7
20260501213858 52 299 8.0 14.0 0.00 0.00 0.00 39 1016.6
20260501213355 53 332 6.0 10.0 0.00 0.00 0.00 37 1016.6
20260501212851 52 338 9.0 12.0 0.00 0.00 0.00 44 1016.8
20260501212348 52 329 9.0 14.0 0.00 0.00 0.00 39 1016.7
20260501211845 51 256 13.0 13.0 0.00 0.00 0.00 38 1016.6
20260501211342 55 274 9.0 9.0 0.00 0.00 0.00 41 1016.8
20260501210839 55 259 2.0 3.0 0.00 0.00 0.00 35 1016.7
20260501210337 54 264 4.0 4.0 0.00 0.00 0.00 35 1016.8
20260501205833 53 242 3.0 3.0 0.00 0.00 0.00 36 1016.9
20260501205330 52 303 5.0 10.0 0.00 0.00 0.00 36 1016.8
20260501204826 51 9 6.0 6.0 0.00 0.00 0.00 45 1016.8
20260501204323 51 332 5.0 12.0 0.00 0.00 0.00 37 1017.1
20260501203819 52 288 6.0 9.0 0.00 0.00 0.00 38 1017.1
20260501203317 52 248 7.0 8.0 0.00 0.00 0.00 39 1017.1
20260501202814 50 225 11.0 15.0 0.00 0.00 0.00 45 1016.9
20260501202311 51 195 4.0 8.0 0.00 0.00 0.00 37 1017.1
20260501201808 52 293 4.0 4.0 0.00 0.00 0.00 36 1017.2
20260501201304 52 242 3.0 5.0 0.00 0.00 0.00 39 1017.2
20260501200801 51 255 9.0 12.0 0.00 0.00 0.00 44 1017.2
20260501200258 51 345 4.0 4.0 0.00 0.00 0.00 44 1017.1
20260501195755 50 340 7.0 9.0 0.00 0.00 0.00 41 1017.2
20260501195251 50 259 4.0 8.0 0.00 0.00 0.00 44 1017.2
20260501194748 52 272 1.0 3.0 0.00 0.00 0.00 36 1017.2
20260501194243 51 126 0.0 7.0 0.00 0.00 0.00 36 1017.1
20260501193740 52 328 3.0 3.0 0.00 0.00 0.00 37 1017.3
20260501193239 51 351 9.0 12.0 0.00 0.00 0.00 38 1017.3
20260501192736 50 23 4.0 6.0 0.00 0.00 0.00 41 1017.3
20260501192232 49 251 6.0 11.0 0.00 0.00 0.00 42 1017.6
20260501191730 51 321 3.0 4.0 0.00 0.00 0.00 41 1017.4
20260501191227 51 276 2.0 4.0 0.00 0.00 0.00 38 1017.6
20260501190723 51 70 5.0 8.0 0.00 0.00 0.00 36 1017.4
20260501190219 51 356 4.0 4.0 0.00 0.00 0.00 39 1017.4
20260501185715 51 206 1.0 8.0 0.00 0.00 0.00 35 1017.3
20260501185211 50 316 0.0 4.0 0.00 0.00 0.00 37 1017.5
20260501184707 50 350 7.0 9.0 0.00 0.00 0.00 39 1017.5
20260501184202 48 20 4.0 9.0 0.00 0.00 0.00 44 1017.6